FFT1469 KLAS-KSAN

Flight info

Callsign FFT1469
Flight time N/A
Altitude 32000
Route RADYR2 LVELL LUCKI1
Aircraft A321/M-SDE3FGHIRWY/LB1

Departure

Time N/A
Airport Harry Reid International Airport (KLAS)

Arrival

Time 2026-04-23 17:03
Airport San Diego International Airport (KSAN)
Time Latitude Longitude Altitude Speed Heading
2026-04-23 16:41 33.71089 -115.85323 29921 ft 399 kts 209°
2026-04-23 16:41 33.70549 -115.85577 29778 ft 399 kts 209°
2026-04-23 16:41 33.67964 -115.86785 29115 ft 398 kts 209°
2026-04-23 16:42 33.65406 -115.87977 28654 ft 393 kts 209°
2026-04-23 16:42 33.62873 -115.89153 28173 ft 388 kts 209°
2026-04-23 16:42 33.60375 -115.90320 27681 ft 384 kts 209°
2026-04-23 16:42 33.57882 -115.91480 27193 ft 380 kts 209°
2026-04-23 16:43 33.55434 -115.92623 26676 ft 376 kts 209°
2026-04-23 16:43 33.53140 -115.93985 26125 ft 366 kts 218°
2026-04-23 16:43 33.51150 -115.95814 25592 ft 357 kts 228°
2026-04-23 16:43 33.49504 -115.98001 25043 ft 350 kts 237°
2026-04-23 16:44 33.48112 -116.00333 24514 ft 348 kts 239°
2026-04-23 16:44 33.46729 -116.02704 23966 ft 347 kts 239°
2026-04-23 16:44 33.45362 -116.05057 23462 ft 345 kts 239°
2026-04-23 16:44 33.43997 -116.07412 22927 ft 344 kts 239°
2026-04-23 16:45 33.42625 -116.09772 22428 ft 343 kts 239°
2026-04-23 16:45 33.41267 -116.12110 21955 ft 341 kts 239°
2026-04-23 16:45 33.39923 -116.14422 21501 ft 339 kts 239°
2026-04-23 16:45 33.38587 -116.16715 21040 ft 337 kts 239°
2026-04-23 16:46 33.37257 -116.18999 20583 ft 336 kts 239°
2026-04-23 16:46 33.35922 -116.21288 20131 ft 334 kts 239°
2026-04-23 16:46 33.34498 -116.23438 19719 ft 335 kts 231°
2026-04-23 16:46 33.32715 -116.25312 19266 ft 338 kts 223°
2026-04-23 16:47 33.30720 -116.26775 18830 ft 343 kts 214°
2026-04-23 16:47 33.28591 -116.28058 18364 ft 344 kts 213°
2026-04-23 16:47 33.26437 -116.29319 17903 ft 343 kts 213°
2026-04-23 16:47 33.24291 -116.30571 17450 ft 343 kts 213°
2026-04-23 16:48 33.22157 -116.31817 17001 ft 342 kts 212°
2026-04-23 16:48 33.20006 -116.33074 16544 ft 341 kts 212°
2026-04-23 16:48 33.17897 -116.34306 16093 ft 340 kts 212°
2026-04-23 16:48 33.15766 -116.35553 15638 ft 339 kts 212°
2026-04-23 16:49 33.14365 -116.36372 15339 ft 339 kts 212°
2026-04-23 16:49 33.11551 -116.38017 14731 ft 338 kts 212°
2026-04-23 16:49 33.09426 -116.39257 14282 ft 337 kts 212°
2026-04-23 16:49 33.07343 -116.40472 13839 ft 336 kts 212°
2026-04-23 16:50 33.05255 -116.41692 13400 ft 334 kts 211°
2026-04-23 16:50 33.03166 -116.42909 13068 ft 328 kts 211°
2026-04-23 16:50 33.01197 -116.44161 12896 ft 314 kts 216°
2026-04-23 16:50 32.99412 -116.45603 12610 ft 305 kts 222°
2026-04-23 16:51 32.97788 -116.47192 12193 ft 303 kts 225°
2026-04-23 16:51 32.96176 -116.48824 11800 ft 301 kts 225°
2026-04-23 16:51 32.94596 -116.50433 11411 ft 299 kts 225°
2026-04-23 16:51 32.93013 -116.52038 11036 ft 297 kts 225°
2026-04-23 16:52 32.91450 -116.53620 10643 ft 296 kts 225°
2026-04-23 16:52 32.89886 -116.55202 10259 ft 294 kts 225°
2026-04-23 16:52 32.88350 -116.56746 10102 ft 283 kts 225°
2026-04-23 16:52 32.86870 -116.58233 9978 ft 272 kts 225°
2026-04-23 16:53 32.85441 -116.59672 9664 ft 272 kts 225°
2026-04-23 16:53 32.83987 -116.61140 9327 ft 271 kts 224°
2026-04-23 16:53 32.82574 -116.62566 9000 ft 270 kts 224°
2026-04-23 16:53 32.81121 -116.64030 8663 ft 269 kts 224°
2026-04-23 16:54 32.79707 -116.65454 8330 ft 268 kts 223°
2026-04-23 16:54 32.78297 -116.66902 8038 ft 264 kts 227°
2026-04-23 16:54 32.77117 -116.68513 7918 ft 259 kts 237°
2026-04-23 16:54 32.76146 -116.70355 7424 ft 265 kts 242°
2026-04-23 16:55 32.75254 -116.72257 6944 ft 269 kts 243°
2026-04-23 16:55 32.74337 -116.74228 6502 ft 272 kts 243°
2026-04-23 16:55 32.73414 -116.76199 6118 ft 271 kts 243°
2026-04-23 16:55 32.72516 -116.78103 5959 ft 262 kts 243°
2026-04-23 16:56 32.71640 -116.79947 5951 ft 246 kts 243°
2026-04-23 16:56 32.70858 -116.81680 5952 ft 238 kts 247°
2026-04-23 16:56 32.70221 -116.83491 5888 ft 238 kts 252°
2026-04-23 16:56 32.69646 -116.85329 5692 ft 235 kts 252°
2026-04-23 16:57 32.69085 -116.87151 5337 ft 236 kts 252°
2026-04-23 16:57 32.68528 -116.88979 5003 ft 235 kts 253°
2026-04-23 16:57 32.67994 -116.90802 4736 ft 232 kts 253°
2026-04-23 16:57 32.67476 -116.92591 4497 ft 226 kts 256°
2026-04-23 16:58 32.67357 -116.94370 4321 ft 212 kts 279°
2026-04-23 16:58 32.67710 -116.96046 3966 ft 207 kts 289°
2026-04-23 16:58 32.68163 -116.97653 3510 ft 204 kts 290°
2026-04-23 16:58 32.68587 -116.99210 3276 ft 191 kts 289°
2026-04-23 16:59 32.68964 -117.00700 3114 ft 187 kts 289°
2026-04-23 16:59 32.69321 -117.02173 2980 ft 187 kts 288°
2026-04-23 16:59 32.69674 -117.03658 2839 ft 186 kts 288°
2026-04-23 16:59 32.70026 -117.05143 2627 ft 187 kts 288°
2026-04-23 17:00 32.70377 -117.06613 2314 ft 185 kts 288°
2026-04-23 17:00 32.70730 -117.08089 1995 ft 183 kts 287°
2026-04-23 17:00 32.71063 -117.09476 1733 ft 168 kts 287°
2026-04-23 17:00 32.71372 -117.10761 1453 ft 155 kts 287°
2026-04-23 17:01 32.71659 -117.11950 1187 ft 145 kts 287°
2026-04-23 17:01 32.71934 -117.13088 961 ft 144 kts 287°
2026-04-23 17:01 32.72210 -117.14231 742 ft 144 kts 287°
2026-04-23 17:01 32.72488 -117.15380 545 ft 144 kts 287°
2026-04-23 17:02 32.72681 -117.16145 429 ft 145 kts 286°
2026-04-23 17:02 32.73053 -117.17672 103 ft 144 kts 284°
2026-04-23 17:02 32.73307 -117.18772 23 ft 127 kts 287°
2026-04-23 17:02 32.73507 -117.19590 21 ft 77 kts 285°
2026-04-23 17:03 32.73608 -117.20007 20 ft 30 kts 285°
2026-04-23 17:03 32.73608 -117.20169 20 ft 12 kts 232°
2026-04-23 17:03 32.73575 -117.20203 20 ft 4 kts 217°
2026-04-23 17:03 32.73573 -117.20205 20 ft 0 kts 217°
2026-04-23 17:04 32.73573 -117.20206 20 ft 0 kts 217°
2026-04-23 17:04 32.73558 -117.20200 20 ft 5 kts 140°
2026-04-23 17:04 32.73534 -117.20126 20 ft 11 kts 107°
2026-04-23 17:04 32.73509 -117.20025 20 ft 14 kts 106°
2026-04-23 17:05 32.73482 -117.19911 20 ft 14 kts 106°
2026-04-23 17:05 32.73454 -117.19795 20 ft 14 kts 106°
2026-04-23 17:05 32.73422 -117.19669 21 ft 20 kts 107°
2026-04-23 17:05 32.73382 -117.19507 23 ft 19 kts 107°
2026-04-23 17:06 32.73305 -117.19439 23 ft 15 kts 194°
2026-04-23 17:06 32.73213 -117.19495 23 ft 12 kts 203°
2026-04-23 17:06 32.73137 -117.19521 23 ft 3 kts 195°
2026-04-23 17:06 32.73126 -117.19526 23 ft 1 kts 213°
2026-04-23 17:07 32.73122 -117.19533 23 ft 0 kts 262°
2026-04-23 17:07 32.73122 -117.19534 23 ft 0 kts 264°
2026-04-23 17:07 32.73122 -117.19537 23 ft 0 kts 266°